STARLINK-2467 (48126 NORAD) Tracking and Keplerian Element Data

This shows tracking and keplerian element data for the satellite.

Feedback or suggestion? Click here.




ElementValue
Catalog48126
NameSTARLINK-2467
Epoch Orbit180
Epoch Day136.75001157
Epoch Year2021
RAAN146.2359
Inclination53.0476
Eccentricity0.0002623
Argument of Perigee22.4074
Mean Anonmoly11.9229
Mean Motion15.73208999
Decay Rate8.622E-05
L11 48126U 21027AL 21136.75001157 .00008622 00000-0 65760-4 0 9998
L22 48126 53.0476 146.2359 0002623 22.4074 11.9229 15.73208999 1806

Live tracking and technical data element details for STARLINK-2467 (NORAD 48126). STARLINK-2467 can be tracked NOW for your location showing map with azimuth and elevation plus other details from your city location.

Track the satellite on the map from your city or location and see movement details for azimuth, elevation, latitude, longitude, range, height, and movement on the map or in text.







IsCatalogInMostPopularTable: catalog: 48126, numindb: 14
Update: records affected: 1



GetName: 48126 STARLINK-2467

Hit Count: updated at: Mon, 17 May 2021 16:33:45 GMT